Dewpoint
41 39 38 28 15 20 17 16 38 45 44 47 49 47 50 54 54 51 65 65 60 61 65 66 68 68 68 69 68 68 67 65 63 64 64 63 62 61 61 60 58 57 57 56 56 56 57 58 58
39 37 30 12 15 15 14 34 38 43 46 46 46 46 49 53 58 61 62 62 60 61 62 65 68 68 68 68 68 67 65 63 63 63 62 61 59 59 59 60 59 58 54 53 53 54 54 54 54
38 25 7 9 15 16 14 37 45 44 44 44 43 46 45 51 58 60 63 64 60 60 62 67 68 67 68 68 67 66 65 64 63 62 59 58 58 59 60 60 59 58 56 56 55 54 54 55 55
24 15 9 17 15 14 20 46 45 44 44 42 44 43 44 51 55 60 64 65 62 61 65 67 65 66 67 68 67 66 65 63 62 61 59 58 60 60 61 61 60 58 58 58 58 58 58 59 57
23 13 8 12 12 14 17 40 39 43 46 46 51 41 42 50 58 61 64 65 64 66 66 66 64 65 67 67 67 66 65 63 62 61 60 60 60 60 61 61 61 60 59 59 59 59 59 58 57
15 11 11 12 11 14 16 34 41 45 45 46 49 42 45 50 55 62 64 64 65 66 65 66 65 66 67 67 66 66 65 63 62 61 60 60 61 61 61 61 61 61 60 60 60 60 59 57 55
16 7 7 9 13 22 26 42 45 48 50 43 45 41 53 51 53 61 64 65 65 65 65 65 65 66 66 65 65 65 64 63 61 61 61 60 60 60 60 60 61 61 61 61 60 58 55 56 53
10 11 11 11 5 24 34 41 45 43 46 47 42 38 48 53 59 64 62 61 62 63 64 65 64 65 64 64 64 63 63 61 60 58 58 58 57 58 59 59 60 59 59 59 58 54 51 51 49
10 11 12 9 7 37 44 45 46 44 43 45 41 46 54 59 62 62 60 62 60 62 63 65 63 64 63 63 63 63 62 59 58 58 58 57 57 57 59 57 58 56 54 55 53 48 47 50 51
13 12 11 23 36 41 44 46 47 37 39 38 46 54 59 60 61 57 57 58 56 58 63 63 63 64 61 56 59 59 59 58 56 56 56 58 59 56 56 56 55 51 51 53 51 48 49 50 48
13 11 13 29 39 39 35 41 39 41 40 44 50 55 58 58 58 59 59 60 59 61 61 62 60 60 56 56 56 57 58 59 59 60 60 60 60 59 57 59 54 53 52 56 51 52 50 49 49
13 11 14 21 37 37 38 35 32 33 38 46 45 51 58 55 56 58 59 60 60 61 60 61 59 58 56 56 53 52 58 60 62 61 60 59 59 58 56 55 54 53 52 51 51 51 50 49 47
13 15 16 19 31 29 29 38 38 35 39 49 51 55 54 53 55 58 59 59 58 58 58 57 57 55 53 54 58 60 61 61 61 61 60 61 59 59 59 57 53 53 52 52 50 49 48 45 43
11 18 17 15 28 27 31 40 37 39 41 46 53 50 49 47 46 49 54 54 52 52 55 56 55 54 55 61 60 60 59 58 58 58 60 61 59 59 56 54 52 53 49 48 47 45 44 44 45
19 16 16 13 25 29 31 29 26 38 42 46 45 44 42 42 42 44 48 49 51 51 53 53 53 55 60 58 57 58 57 57 57 59 60 59 57 56 54 53 51 48 47 45 45 45 44 44 43
19 15 15 16 23 28 35 33 25 37 39 39 40 40 39 39 41 44 46 47 50 51 53 53 54 60 58 56 56 57 58 58 57 57 55 54 53 53 50 50 49 48 49 46 44 45 46 44 44
16 15 18 16 18 27 30 27 22 30 36 37 40 40 41 40 40 41 44 45 49 52 55 56 58 59 58 58 60 59 58 55 54 54 53 52 51 50 50 49 48 47 45 45 46 45 44 41 38
15 16 14 12 11 15 23 20 21 26 33 37 38 40 43 41 42 42 42 44 48 56 57 58 61 60 59 60 58 57 55 53 53 52 50 50 49 48 48 47 46 46 45 43 44 44 42 38 36
17 14 13 11 11 13 18 16 17 22 28 36 38 41 42 42 45 46 45 45 51 58 59 58 59 59 59 57 55 54 52 51 50 49 48 47 47 45 46 46 45 44 41 40 38 37 37 37 37
17 16 12 11 15 15 9 12 17 22 25 32 36 39 42 44 48 50 49 51 57 58 60 59 58 58 58 57 54 53 51 50 49 47 47 46 44 43 45 43 41 40 38 37 39 38 37 36 36
14 13 18 13 10 6 13 8 19 24 27 27 32 36 40 43 49 50 51 53 59 58 60 59 59 58 58 57 55 53 51 47 45 46 46 44 43 41 40 38 38 39 39 38 39 38 36 34 34
19 23 19 17 15 13 21 14 30 31 27 30 32 34 37 41 49 49 51 55 56 58 59 58 58 58 58 56 50 49 47 45 45 46 45 44 42 39 36 36 37 40 40 39 39 36 37 35 34
22 24 23 15 15 25 21 24 25 34 30 32 36 39 39 42 46 49 54 56 57 58 58 58 58 57 51 48 49 48 46 46 43 41 39 36 37 38 35 35 36 35 35 37 38 37 36 36 35
26 25 22 18 17 23 22 28 23 27 28 34 34 38 41 46 46 48 55 56 55 58 58 58 56 48 48 46 47 47 43 39 37 36 35 34 33 32 33 32 31 32 33 34 35 37 37 36 35
18 18 18 25 25 19 17 17 18 27 34 42 42 38 43 45 47 48 51 54 55 55 53 50 47 45 46 46 43 39 36 37 37 36 34 29 28 29 30 29 30 31 32 33 35 37 37 37 36
21 15 22 23 25 20 18 14 17 24 26 35 39 43 45 46 46 46 47 49 52 49 48 47 44 44 44 42 38 38 38 36 34 33 29 29 28 27 28 29 30 30 30 31 33 36 37 37 36
20 19 20 18 28 21 14 9 21 25 26 32 40 42 44 43 42 43 43 46 47 47 47 45 43 43 42 38 38 37 34 31 29 28 30 31 27 26 30 30 30 30 31 31 32 33 36 36 36
21 20 20 17 13 12 10 10 21 25 23 29 38 41 43 42 40 40 40 43 44 45 46 45 44 42 38 39 38 36 33 30 29 30 30 28 27 28 29 29 29 29 30 30 30 35 36 35 36
23 22 17 14 20 20 18 13 14 17 22 26 33 39 42 42 41 40 39 41 43 44 45 45 44 39 38 36 36 34 31 31 29 31 30 28 28 28 29 29 27 27 28 29 30 31 30 32 34
22 23 20 22 17 21 22 21 19 18 20 26 28 35 39 41 41 40 39 41 42 44 44 45 43 38 37 37 33 33 32 31 31 29 29 28 28 29 29 29 27 27 28 29 29 31 31 31 31
Wind_Speed
11 13 14 15 10 11 21 23 13 9 8 13 15 9 13 17 7 3 7 15 30 25 25 23 24 21 19 19 22 20 21 20 19 20 19 19 19 19 19 18 18 19 18 18 17 18 17 17 16
13 18 15 10 13 20 21 29 11 12 17 14 14 14 13 15 12 15 13 19 28 24 22 22 23 21 20 21 21 19 21 20 19 20 19 19 18 18 18 16 17 19 19 19 19 18 18 17 15
11 17 11 10 20 24 21 13 16 12 10 10 9 13 5 11 14 11 16 15 24 24 20 21 23 22 21 21 21 19 20 19 19 20 19 18 17 18 18 16 18 18 19 19 19 18 16 15 14
8 10 11 13 24 27 9 24 24 10 12 6 12 8 5 8 9 15 27 19 21 19 20 21 20 21 21 22 22 19 19 18 19 20 18 17 17 18 18 17 16 17 17 17 16 15 15 15 16
16 11 17 20 21 26 8 19 10 10 8 16 26 10 8 8 11 20 25 20 22 19 21 18 17 20 22 21 21 19 19 18 19 19 18 18 16 16 16 16 15 15 15 15 14 13 12 13 13
13 16 20 23 26 24 6 11 17 17 14 12 4 15 10 18 16 14 15 19 22 22 20 16 15 19 20 20 19 20 18 18 18 18 18 16 15 14 14 14 13 13 12 11 10 10 8 7 9
18 19 21 25 17 3 8 18 13 24 7 4 10 5 8 16 15 22 19 20 22 18 16 15 13 23 23 20 19 19 18 18 18 17 16 14 14 13 12 12 11 9 8 8 8 7 6 7 9
17 20 24 25 25 9 1 12 23 17 17 5 4 3 6 15 20 23 21 21 20 16 15 15 20 21 18 17 19 18 17 17 17 16 15 15 14 13 12 12 8 7 5 5 5 4 5 3 4
17 16 19 24 27 9 19 26 6 24 14 7 6 6 4 23 23 23 22 19 12 6 10 13 16 19 19 17 17 16 15 17 16 13 13 12 10 11 12 9 7 4 1 2 1 1 6 7 8
15 16 24 3 11 17 16 4 43 7 9 9 11 15 19 21 22 28 19 16 18 17 16 24 20 19 18 15 15 13 14 12 12 11 11 10 6 10 10 10 10 8 7 5 5 6 4 7 13
18 21 18 10 18 13 12 27 15 16 4 6 6 9 16 16 17 22 25 27 31 23 18 13 18 18 18 15 15 13 12 11 12 7 5 4 6 3 6 3 6 8 8 6 8 7 5 6 5
17 18 18 7 18 15 14 13 18 10 3 21 10 11 16 16 18 17 20 24 23 20 21 17 15 13 19 14 14 13 12 13 9 6 3 3 1 6 4 7 6 8 10 8 8 9 10 11 10
15 17 10 9 7 13 4 28 12 8 12 21 20 24 17 15 21 23 19 22 23 23 22 21 16 15 14 11 13 14 13 12 8 8 9 9 7 8 11 12 12 14 14 15 14 14 14 15 14
13 14 6 3 6 7 9 21 19 13 12 12 21 20 17 18 20 19 24 22 18 21 21 20 15 13 12 16 16 14 12 10 8 9 7 5 4 8 8 8 9 10 13 12 12 11 10 10 10
6 5 8 3 4 6 8 6 12 21 22 22 23 20 18 15 19 15 18 18 22 21 21 18 18 14 18 16 14 13 11 8 5 4 7 8 6 7 8 9 11 11 11 7 6 9 9 11 11
9 13 4 8 5 10 16 15 13 18 18 16 15 16 14 14 15 16 16 16 21 22 21 19 16 21 19 14 10 12 11 6 10 5 11 9 8 11 11 8 9 9 4 5 6 8 11 13 12
11 6 8 9 18 13 13 19 10 15 19 20 20 17 17 15 15 13 16 16 20 24 23 16 16 18 19 12 7 7 10 11 10 9 9 6 7 6 7 9 9 6 5 6 8 11 11 12 14
7 16 15 8 10 16 18 12 15 15 18 20 17 16 17 15 16 16 15 17 18 25 22 18 13 14 11 8 6 5 7 9 10 9 9 9 8 5 6 9 4 3 8 9 8 6 7 10 13
16 10 20 20 13 9 16 19 16 17 15 19 19 19 18 15 16 12 10 14 15 25 23 20 18 14 11 8 8 8 7 9 10 8 9 7 9 6 8 11 9 9 8 7 8 8 9 11 11
17 13 5 8 7 5 12 10 16 18 20 20 19 21 22 19 19 14 11 10 20 20 22 20 17 17 14 10 8 8 11 10 10 12 7 10 6 8 9 5 5 7 6 8 8 10 10 7 10
19 3 6 9 11 11 8 16 17 15 12 16 20 20 20 21 20 17 15 12 19 18 19 21 16 18 16 12 10 11 11 11 11 11 10 9 6 5 3 3 5 5 7 9 9 9 9 8 11
10 15 9 10 14 11 9 13 8 9 14 18 21 22 21 21 21 18 17 13 12 13 13 19 20 18 16 15 14 15 12 11 8 12 12 12 7 3 2 2 2 1 4 8 8 8 6 8 10
3 16 15 12 9 4 10 9 17 25 15 21 17 14 16 16 17 21 22 18 15 15 15 14 15 17 14 10 14 13 15 12 12 12 7 3 4 5 1 9 13 11 10 10 10 10 7 6 7
10 11 11 10 8 4 22 14 12 21 25 12 19 18 15 13 13 15 25 21 17 15 15 14 18 14 12 7 7 8 12 11 12 9 2 3 6 6 11 11 10 9 10 10 12 12 3 2 7
9 9 7 11 9 8 15 10 1 28 16 27 35 19 14 16 17 17 22 25 21 19 16 16 15 15 13 12 12 11 11 12 9 5 2 8 5 6 7 7 6 7 10 11 13 8 5 6 10
15 10 3 4 8 14 4 6 5 14 10 18 21 19 18 17 17 18 16 15 21 19 17 16 17 17 15 14 14 12 12 10 7 6 6 3 1 3 3 3 7 10 12 13 13 10 8 8 9
7 4 2 5 9 5 8 20 6 6 8 13 18 17 18 18 18 18 18 18 18 19 18 17 18 18 17 15 15 11 9 8 8 6 3 3 2 4 4 5 7 8 10 12 14 14 10 12 12
5 8 5 2 3 6 11 13 10 8 6 6 16 17 17 19 21 19 19 18 19 18 18 15 17 18 18 16 13 11 10 7 5 4 6 3 3 2 2 4 6 8 10 11 11 10 13 14 13
7 8 8 10 7 1 7 4 8 8 6 7 11 19 19 21 20 20 19 19 17 17 18 16 16 18 17 14 13 13 10 10 8 10 5 5 4 3 5 5 7 10 11 10 6 9 12 11 10
9 10 13 7 8 4 2 10 5 5 5 6 8 12 20 20 20 21 20 19 18 18 18 18 16 16 16 14 13 12 11 13 16 9 8 7 7 6 6 4 7 10 10 6 8 4 8 8 9
Wind_Direction
225 241 243 255 243 235 256 257 63 64 94 82 122 163 90 44 16 72 134 132 124 133 132 127 122 124 120 114 108 103 101 98 96 91 87 84 81 79 74 72 72 72 69 66 62 60 56 49 41
240 236 237 273 237 258 254 23 97 96 104 108 108 97 66 75 73 120 129 132 125 130 139 133 120 124 120 112 105 106 103 103 101 97 91 85 81 80 77 76 79 76 74 71 66 60 55 49 37
254 263 254 232 236 250 266 68 71 119 144 107 88 98 109 107 124 137 131 131 136 134 130 126 125 123 117 109 102 103 103 104 101 96 93 89 83 77 76 78 79 78 73 68 65 60 54 45 33
235 230 249 260 254 247 277 128 136 206 184 147 123 112 75 42 123 145 133 154 113 126 122 124 129 120 114 103 102 101 101 102 100 96 93 88 83 81 78 77 76 74 69 64 59 51 43 33 26
232 266 239 250 245 262 240 127 155 77 49 36 348 124 95 88 86 133 134 140 129 106 112 113 126 125 110 109 106 106 101 100 100 97 93 90 88 88 84 78 75 73 67 58 52 49 42 29 24
222 229 258 247 245 252 142 146 96 67 110 90 274 117 112 126 125 127 128 128 118 114 116 125 129 114 109 104 106 102 103 101 97 96 95 96 95 92 88 84 75 69 65 64 54 43 36 39 22
249 247 245 263 270 231 292 86 102 106 20 94 357 98 89 142 130 119 88 96 87 97 105 132 155 120 110 110 108 106 107 108 106 105 108 113 110 107 103 87 77 69 63 55 51 39 28 20 8
237 255 275 277 271 173 281 108 127 120 187 258 96 86 129 135 115 98 86 83 80 98 125 157 144 109 108 106 111 113 116 114 113 121 132 134 137 138 128 114 89 73 52 49 44 15 358 345 334
241 265 264 263 265 88 3 18 229 146 141 192 124 144 188 101 107 94 101 98 97 170 163 175 123 128 123 123 117 116 123 130 129 140 153 157 172 154 140 115 114 97 139 134 158 320 309 318 263
238 236 250 321 71 95 90 23 278 146 140 150 133 108 107 115 123 120 112 137 141 183 175 159 153 133 135 125 143 144 149 153 155 170 168 207 168 138 141 149 157 177 191 189 228 244 287 352 12
227 249 292 36 111 123 146 198 267 88 18 63 305 95 129 133 123 134 150 145 169 154 141 132 114 128 126 147 156 161 177 173 134 111 72 52 76 196 161 75 197 186 212 195 221 243 41 13 8
241 237 263 307 137 179 176 127 63 64 178 86 300 270 141 137 122 125 125 123 122 129 129 130 127 138 142 165 170 165 117 98 93 100 89 148 80 53 61 142 47 53 32 20 25 357 25 16 358
236 268 240 279 49 78 72 106 78 317 133 154 199 214 142 143 139 141 133 129 143 145 144 132 142 132 147 146 94 88 88 96 109 85 39 22 43 34 41 44 50 43 22 26 15 21 17 7 353
210 260 260 272 262 81 59 128 79 249 188 172 162 143 148 159 141 144 143 138 147 128 121 128 141 134 129 96 111 103 98 89 72 61 56 50 45 65 62 53 41 47 54 31 24 9 355 333 323
326 243 260 256 162 98 79 244 118 134 139 148 151 151 163 143 127 132 124 140 133 133 130 141 142 154 117 119 110 110 104 98 75 84 85 90 50 65 66 54 58 40 36 21 355 348 350 347 338
247 252 130 245 192 119 88 291 127 132 137 144 146 146 150 140 134 135 137 150 135 135 137 143 153 130 125 121 128 121 127 139 97 99 79 66 75 76 80 75 56 29 329 37 7 342 4 341 336
217 215 182 167 219 171 125 243 147 156 153 155 159 167 148 150 139 141 149 155 145 137 135 148 144 124 133 146 124 173 113 109 111 99 106 124 102 104 131 83 65 346 4 3 24 11 346 343 335
155 214 210 206 207 227 174 185 163 176 168 152 164 164 152 165 161 155 168 154 148 133 136 136 132 135 139 130 150 104 96 108 130 140 143 164 113 102 90 107 105 20 10 24 17 332 330 336 329
194 240 256 198 185 187 245 158 168 177 188 161 172 170 162 175 152 156 170 153 134 134 140 151 143 155 170 181 174 153 144 146 138 131 95 94 104 96 42 41 37 44 16 7 339 339 347 334 335
251 218 217 129 183 248 200 176 166 186 189 183 189 178 170 176 151 162 180 156 131 134 132 137 158 171 198 211 194 156 145 156 132 112 120 103 85 70 97 71 33 34 358 330 0 355 333 337 344
248 217 218 178 187 212 251 224 169 189 207 209 192 187 180 176 160 174 174 166 129 148 148 151 177 184 202 204 169 155 125 108 125 137 147 113 99 71 61 74 48 12 360 350 344 330 335 346 339
314 328 203 276 182 221 317 247 45 322 222 204 200 200 190 185 165 173 180 149 132 152 162 173 185 187 201 198 173 160 157 170 160 147 119 138 139 122 2 333 298 357 357 326 325 333 356 330 309
151 272 277 240 244 103 331 331 226 219 232 223 224 213 192 178 166 172 155 156 150 172 181 197 173 193 160 181 161 174 122 123 109 95 114 142 174 199 271 39 36 15 355 328 303 291 273 274 307
179 235 252 269 253 180 244 185 207 198 223 254 201 203 208 164 181 183 144 149 165 176 186 187 193 143 152 143 117 108 114 115 120 99 63 267 55 34 51 42 17 354 336 330 323 303 252 353 297
222 233 236 5 340 256 259 206 194 229 196 159 216 185 175 184 171 160 152 154 161 182 173 161 152 151 145 124 109 106 105 105 108 146 208 52 11 32 43 28 352 332 324 314 306 303 325 297 286
266 261 350 178 214 291 346 248 77 95 106 148 154 163 169 160 157 158 159 159 158 160 159 173 164 154 143 145 143 136 132 139 180 127 67 64 25 46 35 354 354 335 328 322 312 290 266 264 288
4 295 328 299 197 324 279 283 160 100 106 140 147 165 169 168 166 168 175 165 163 169 176 183 168 163 158 155 144 152 148 129 115 99 92 259 104 241 73 9 331 324 324 319 310 305 283 281 279
261 343 309 254 295 276 298 302 107 127 143 164 161 175 181 177 176 179 184 173 172 176 176 187 180 166 158 152 150 152 157 150 140 140 215 212 220 198 311 307 316 317 300 290 296 10 355 337 337
181 244 241 278 256 323 313 51 29 68 124 170 198 178 184 186 188 185 189 180 179 174 175 188 190 165 154 156 164 164 172 166 186 210 205 214 219 215 255 300 319 304 300 312 3 342 322 337 339
315 289 212 215 266 203 298 282 77 89 96 164 218 207 186 191 194 189 190 183 181 180 183 193 195 166 159 161 170 175 184 205 208 192 206 198 213 231 262 277 304 297 296 346 328 351 334 326 311